Regional Weather Roundup
Issued by NWS Goodland, KS

Home | Current Version | Previous Version | Graphics & Text | Print | Product List | Glossary On
Versions: 1 2 3 4 5 6 7 8 9 10 11 12 13 14 15 16 17 18 19 20 21 22 23 24 25 26 27 28 29 30 31 32 33 34 35 36 37 38 39 40 41 42 43 44 45 46 47 48 49 50
000
ASUS43 KGLD 031259
RWRGLD

GOODLAND FORECAST AREA HOURLY WEATHER ROUNDUP
NATIONAL WEATHER SERVICE GOODLAND KS
600 AM MST TUE MAR 03 2015

...OFFICIAL OBSERVATIONS...

CITY           SKY/WX    TMP DP  RH WIND       PRES   REMARKS
GOODLAND KS    CLOUDY    31  30  96 N18G24    29.68R FOG     WCI  19
HILL CITY KS   MOCLDY    31  27  85 NW7       29.69R
IMPERIAL NEB     N/A     31  28  89 NW15      29.73R
MCCOOK NEB     CLOUDY    28  23  81 NW8       29.70R
AKRON CO       CLOUDY    28  27  96 N24G30    29.70R FOG     WCI  14
BURLINGTON CO  CLOUDY    35  24  64 NW15      29.66R
LIMON CO       MOCLDY    31  16  54 W8        29.66R
$$

...UNOFFICIAL OBSERVATIONS...

CITY           SKY/WX    TMP DP  RH WIND       PRES   REMARKS
COLBY KS       CLOUDY    32  32 100 NW13      29.70R FOG
GOVE KS          N/A     36  32  85 MISG        N/A
LENORA KS        N/A     28  32 100 S12         N/A  WCI  18
SHARON SPRINGS   N/A     35  32  88 W7          N/A
KIT CARSON CO    N/A     32  27  82 MISG        N/A
YUMA CO          N/A     29  27  93 N13         N/A  WCI  19
$$



USA.gov is the U.S. government's official web portal to all federal, state and local government web resources and services.